Location: Beaucaire
(43.8084°N, 4.6395°E)
Time: 12:42:07
(UTC+00:00)

Daily predictions for brighter satellites

Satellite Brightness Start Highest point End
(mag) Time Altitude Azimuth Time Altitude Azimuth Time Altitude Azimuth
NOSS 3-1 (C) 4.1 17:04:52 10° NNW 17:12:20 66° NE 17:20:59 10° SE
COSMO-SKYMED 1 3.4 17:10:52 10° NNE 17:14:46 31° E 17:18:37 10° SSE
Cosmos 1937 Rocket 4.0 17:09:54 10° S 17:14:51 41° ESE 17:19:49 10° NE
Okean 1-7 Rocket 3.9 17:12:18 10° SSW 17:16:50 76° W 17:21:26 10° N
OE (NEXTSAT) 4.3 17:14:18 10° WNW 17:17:46 89° NNE 17:21:12 10° ESE
Aureole 3 2.6 17:14:59 10° N 17:18:00 62° E 17:20:57 10° SSE
USA 290 3.7 17:19:40 10° NNE 17:21:56 18° ENE 17:24:12 10° ESE
NOSS 2-1 (C) 3.1 17:19:30 10° SW 17:22:51 71° NW 17:26:15 10° NNE
Cosmos 1833 Rocket 3.2 17:20:39 10° N 17:25:49 36° NE 17:30:58 10° ESE
H-2A R/B 3.0 17:23:27 10° ESE 17:27:34 25° ENE 17:31:46 10° N
Lacrosse 5 4.2 17:23:40 10° WNW 17:27:57 28° SW 17:32:12 10° S
Meteor 1-21 Rocket 4.2 17:22:53 10° S 17:28:24 84° E 17:34:01 10° NNE
NOSS 2-1 (D) 3.3 17:25:29 10° SW 17:28:47 60° NW 17:32:11 10° NNE
Cosmos 1939 Rocket 2.9 17:25:36 10° SSE 17:29:38 64° ENE 17:33:38 10° N
Helios 1A Rocket 4.4 17:27:27 10° ESE 17:30:11 17° ENE 17:32:56 10° NNE
H-2A R/B 2.5 17:27:40 10° N 17:32:02 68° WNW 17:36:15 10° SSW
Cosmos 2344 4.4 17:23:04 10° NNW 17:32:10 58° NE 17:44:44 10° SE
Cosmos 1602 Rocket 3.6 17:28:21 10° S 17:32:38 61° E 17:36:59 10° NNE
Cosmos 44 4.0 17:28:02 10° SW 17:32:45 53° NW 17:37:47 10° NNE
USA 229 DEB 3.9 17:26:31 10° NNW 17:33:47 65° NE 17:41:25 10° SE
Cosmos 2026 Rocket 4.2 17:27:59 10° SSE 17:33:51 49° E 17:39:50 10° NNE
USA 229 3.9 17:26:37 10° NNW 17:33:53 64° NE 17:41:32 10° SE
CZ-3B R/B 2.4 17:32:13 10° NW 17:34:49 43° NE 17:41:53 10° ESE
Feng Yun 1-1 Rocket 4.3 17:29:34 10° SSE 17:34:57 61° ENE 17:40:30 10° N
SeaSat 1 4.3 17:31:26 10° N 17:35:30 26° NW 17:39:33 10° WSW
SJ 16-02 3.0 17:31:49 10° SW 17:35:49 34° WNW 17:39:51 10° N
CSL-04 DEB 4.3 17:32:35 10° NNE 17:36:42 71° ESE 17:40:40 10° S
Cosmos 2112 Rocket 4.0 17:33:26 10° NNW 17:38:41 88° WSW 17:43:52 10° SSE
YAOGAN 1 3.4 17:35:22 10° SE 17:39:03 28° ENE 17:42:46 10° N
Cosmos 990 Rocket 4.2 17:33:59 10° SSW 17:39:11 76° WNW 17:44:23 10° NNE
H-2A R/B 4.2 17:37:12 10° SSW 17:41:03 37° W 17:45:04 10° NNW
Cosmos 1844 Rocket 4.1 17:35:54 10° WSW 17:41:06 36° NW 17:46:19 10° N
Cosmos 1689 Rocket 3.5 17:41:34 16° ENE 17:42:33 19° E 17:44:38 10° SE
Aureole 3 Rocket 2.9 17:40:34 10° N 17:43:45 44° E 17:47:44 10° SSE
COSMOS 2406 3.3 17:39:37 10° NNW 17:45:20 58° ENE 17:50:59 10° SE
Cosmos 2082 Rocket 3.0 17:40:34 10° N 17:45:34 30° NE 17:50:31 10° ESE
Cosmos 1703 3.4 17:42:48 10° SSW 17:46:40 76° W 17:50:34 10° N
Cosmos 1825 Rocket 4.1 17:43:46 10° SSE 17:47:45 35° E 17:51:46 10° NNE
IRS-1C Rocket 4.1 17:43:21 10° SSE 17:48:29 58° ENE 17:53:38 10° N
X-37B 0.5 17:46:10 10° WNW 17:49:22 86° NNE 17:51:36 18° E
NOSS 3-1 (A) 4.1 17:41:58 10° NNW 17:49:30 70° NE 17:58:12 10° SE
ISS -2.0 17:49:25 10° NW 17:52:05 21° N 17:53:50 15° NE
Cosmos 1812 Rocket 3.5 17:48:39 10° N 17:53:03 86° E 17:57:23 10° S
Okean O Rocket 3.1 17:50:14 10° S 17:54:25 41° W 17:58:36 10° NNW
CZ-4 R/B 1.5 17:54:44 10° SSE 17:58:38 49° ENE 18:02:29 10° N
Iridium 4 Rocket 3.4 17:56:04 10° N 18:01:25 70° E 18:06:14 10° S
ERS-2 2.1 17:59:20 10° NNE 18:02:55 55° ESE 18:06:29 10° S
SKYMED 2 3.7 17:58:35 10° N 18:02:57 79° WNW 18:07:17 10° SSW
CSL-04 Rocket 4.2 17:58:12 10° SE 18:03:06 35° ENE 18:08:04 10° N
Okean-O 2.7 18:01:48 10° SSE 18:06:07 55° ENE 18:10:28 10° N
S3M 4.3 18:03:49 10° N 18:09:31 39° ENE 18:15:11 10° SE
USA 234 4.5 18:05:52 14° NE 18:10:13 28° N 18:15:33 10° NW
Cosmos 1340 3.7 18:06:39 10° SSW 18:10:15 46° WNW 18:13:54 10° N
Cosmos 1346 Rocket 2.7 18:06:51 10° S 18:10:43 63° E 18:14:38 10° NNE
Cosmos 1655 Rocket 4.4 18:05:27 10° SSE 18:11:03 37° E 18:16:40 10° NNE
Cosmos 2278 Rocket 2.1 18:05:25 10° SSW 18:11:05 80° ESE 18:16:47 10° NNE
Cosmos 1953 Rocket 3.8 18:10:04 10° SSE 18:14:11 44° E 18:17:58 12° NNE
CZ-2C R/B 3.4 18:09:09 10° S 18:14:36 77° WSW 18:20:21 10° NNW
SWARM A 4.3 18:13:47 10° SSE 18:17:00 51° E 18:18:52 22° NNE
Cosmos 2292 Rocket 3.9 18:14:17 10° SSE 18:18:58 42° E 18:20:41 27° NE
Cosmos 1892 4.3 18:16:01 10° SSE 18:17:22 18° SE 18:17:22 18° SE
SAR-Lupe-4 3.4 18:17:50 14° NNE 18:20:52 75° ESE 18:24:25 10° S
Cosmos 44 Rocket 3.6 18:16:39 10° S 18:21:19 46° ESE 18:23:19 30° ENE
Cosmos 405 3.9 18:19:47 10° NNW 18:23:13 50° W 18:26:37 10° S
ARGOS 3.1 18:22:53 10° SSE 18:28:09 61° ENE 18:33:28 10° N
DMSP B5D1-3 4.4 18:24:36 10° NNE 18:29:42 67° ESE 18:34:46 10° S
Cosmos 1869 4.2 18:27:45 10° N 18:30:11 32° NNE 18:30:11 32° NNE
PSLV R/B 4.2 18:30:01 10° N 18:34:14 73° WNW 18:38:24 10° SSW
Cosmos 372 Rocket 4.1 18:29:33 10° SSW 18:34:45 77° WNW 18:39:58 10° NNE
SAR-Lupe-1 4.3 18:34:04 15° N 18:36:55 68° WNW 18:40:28 10° SSW
CZ-4B R/B 3.9 18:35:09 10° NNW 18:37:39 20° WNW 18:40:07 10° WSW
Cosmos 468 4.5 18:33:33 10° NNW 18:38:45 57° ENE 18:41:13 30° SE
CZ-2C R/B 2.8 18:33:55 10° NNE 18:39:23 51° E 18:44:51 10° S
Cosmos 494 Rocket 4.3 18:37:45 10° N 18:42:29 42° ENE 18:42:29 42° ENE
Cosmos 2150 Rocket 3.9 18:38:52 10° S 18:43:57 66° ESE 18:45:59 36° NE
TRAILBLAZER 4.5 18:40:55 10° NNW 18:45:34 75° NE 18:46:35 53° ESE
Cosmos 1048 Rocket 3.8 18:42:37 10° NNW 18:47:45 67° ENE 18:49:36 39° SE
Cosmos-2242 4.1 18:43:45 10° NNW 18:47:52 45° W 18:52:00 10° SSW
Cosmos 2297 4.0 18:46:22 10° S 18:51:24 45° ESE 18:51:24 45° ESE
SL-08 RB Rocket 3.5 18:59:18 67° SSE 18:59:53 85° ENE 19:04:24 10° NNW
CSL-04 Debris 4.3 18:56:40 10° S 19:02:01 72° WSW 19:07:26 10° NNW
Helios 1A Rocket 4.0 19:01:01 10° S 19:04:59 45° W 19:08:59 10° NNW
H-2A R/B 3.2 19:01:56 10° S 19:06:44 43° W 19:11:41 10° NNW
Cosmos 1125 Rocket 3.3 19:03:25 10° SSW 19:08:37 80° ESE 19:08:41 80° E
Cosmos 1809 Rocket 4.4 19:02:51 10° S 19:08:59 88° W 19:15:12 10° N
Cosmos 1833 Rocket 4.2 19:04:38 10° NW 19:09:43 36° WSW 19:14:46 10° S
Cosmos 2298 Rocket 4.3 19:06:01 10° SSW 19:11:18 68° WNW 19:13:35 34° N
Cosmos 2266 Rocket 3.9 19:06:54 10° S 19:13:09 90° ENE 19:19:20 10° N
NOSS 2-2 (C) 4.5 19:15:00 10° NNW 19:20:07 62° NE 19:20:07 62° NE
X-37B 3.7 19:23:01 10° W 19:23:54 16° W 19:23:54 16° W
Cosmos 1943 Rocket 3.9 19:21:42 10° S 19:23:18 19° S 19:23:18 19° S
ISS -0.6 19:26:30 10° NW 19:26:49 12° NW 19:26:49 12° NW
Cosmos 2082 Rocket 3.1 19:24:24 10° NW 19:29:50 46° WSW 19:33:42 18° S
Cosmos 2315 Rocket 4.2 19:41:04 10° NNW 19:46:33 66° NW 19:46:33 66° NW
ATLAS 2AS CENTAUR R/B 4.5 19:43:45 10° NNW 19:48:21 21° N 19:48:21 21° N
USA 234 4.2 19:53:13 35° N 19:53:13 35° N 19:58:01 10° NW
Cosmos 2278 Rocket 4.5 19:51:52 10° W 19:55:52 19° NW 19:59:05 13° N
CZ-4C R/B 4.4 19:53:52 10° NNW 19:56:58 21° N 19:56:58 21° N
ATLAS 5 CENTAUR R/B 4.4 20:20:46 10° SW 20:39:15 60° SW 20:39:15 60° SW
